Location: El Morro Beach Trailer Park (historical)
(33.5634°N, 117.8217°W)
Time: 11:49:48
(UTC+00:00)

Daily predictions for brighter satellites

Satellite Brightness Start Highest point End
(mag) Time Altitude Azimuth Time Altitude Azimuth Time Altitude Azimuth
Cosmos 2369 4.3 12:08:44 51° NE 12:09:02 51° ENE 12:14:31 10° SE
Cosmos 1898 Rocket 4.3 12:14:12 44° NE 12:14:50 47° ENE 12:19:53 10° SE
Tiangong 0.8 12:29:07 19° E 12:29:07 19° E 12:30:09 10° ESE
Cosmos 372 Rocket 4.0 12:29:01 75° SE 12:29:01 75° SE 12:33:41 10° SSE
OAO 3 Rocket 4.0 12:30:37 42° SSE 12:30:42 42° SSE 12:35:07 10° E
Cosmos 967 Rocket 4.5 12:33:11 62° WSW 12:33:11 62° WSW 12:39:26 10° SSE
Cosmos 1937 Rocket 4.2 12:31:53 31° NNE 12:33:59 50° ENE 12:38:57 10° SE
SL-16 R/B 4.5 12:29:13 10° SSW 12:30:10 14° SSW 12:30:10 14° SSW
Cosmos 2333 Rocket 4.2 12:30:27 10° N 12:35:01 24° ENE 12:39:32 10° ESE
USA 59 Rocket 0.4 12:36:56 60° NE 12:37:18 63° ENE 12:42:50 10° SE
NOSS 2-1 (D) 4.0 12:37:28 53° NNE 12:37:56 56° ENE 12:43:19 10° SE
Cosmos 1892 Rocket 3.8 12:35:08 10° S 12:39:27 67° E 12:43:48 10° NNE
Aureole 1 Rocket 4.3 12:42:03 38° NW 12:45:05 67° WSW 12:52:19 10° S
Cosmos 2180 Rocket 4.5 12:46:12 48° NW 12:47:33 57° W 12:53:45 10° SSW
COSMOS 2455 2.7 12:47:28 45° NW 12:49:24 79° WSW 12:55:22 10° SSE
Cosmos 2026 Rocket 4.0 12:44:31 10° S 12:50:32 77° E 12:56:37 10° N
NOSS 2-1 (E) 4.0 12:50:25 43° N 12:51:34 60° ENE 12:56:59 10° SE
Cosmos 2322 Rocket 4.2 12:48:33 10° N 12:53:09 25° ENE 12:57:43 10° ESE
CZ-3 Stage 3 4.3 12:46:58 33° W 12:53:15 70° S 13:36:19 10° ESE
ATLAS 2AS CENTAUR R/B 3.9 12:48:04 10° S 12:54:43 43° ESE 13:01:13 10° NE
Centaur AC-119 4.0 12:53:06 26° SSW 12:55:01 35° S 12:59:35 10° ESE
Delta 2 Rocket 3.8 13:05:57 31° S 13:05:57 31° S 13:08:16 10° SE
NOSS 2-1 (C) 3.6 13:08:08 42° NW 13:09:33 75° WSW 13:15:12 10° SSE
Meteor 2-3 Rocket 3.9 13:07:10 10° SSW 13:12:41 48° WNW 13:18:11 10° N
Cosmos 2237 4.2 13:12:44 25° NW 13:15:57 59° WSW 13:21:30 10° S
Cosmos 158 Rocket 4.1 13:12:05 10° S 13:17:25 79° ESE 13:22:41 10° NNE
Cosmos 1092 Rocket 3.9 13:13:03 10° SSW 13:19:17 70° W 13:25:32 10° N
SKYMED 2 3.4 13:15:48 10° S 13:20:07 80° WSW 13:24:24 10° NNW
NOAA 12 4.1 13:15:33 10° N 13:20:42 56° WNW 13:25:48 10° SSW
SL-16 R/B 2.2 13:16:46 11° NNW 13:22:14 82° ENE 13:27:53 10° SSE
Meteor 1-26 Rocket 4.4 13:18:09 10° N 13:23:47 75° E 13:29:33 10° SSE
Cosmos 2058 Rocket 3.1 13:20:09 10° N 13:24:34 78° E 13:28:55 10° S
CZ-3 R/B 3.7 13:14:57 19° W 13:25:25 33° SW 13:32:09 10° SSE
Cosmos 1743 3.7 13:29:41 10° SSE 13:32:44 40° E 13:35:48 10° NNE
Meteor 2-20 4.4 13:31:11 10° NNW 13:37:10 61° W 13:43:06 10° S
SL-08 ROCKET BODY 4.4 13:34:11 10° S 13:40:02 81° E 13:45:52 10° N
BREEZE-M DEB (TANK) 2.9 13:41:51 20° W 13:43:25 39° NW 13:45:39 10° NE
Cosmos 2221 4.4 13:42:28 10° NNE 13:46:07 29° E 13:49:44 10° SE
Cosmos 2278 3.7 13:41:18 10° NNW 13:46:55 70° WSW 13:52:29 10° S
OAO 2 Rocket 3.3 13:44:17 14° W 13:48:44 83° N 13:53:52 10° E
Cosmos 1758 Rocket 3.5 13:44:42 10° S 13:49:07 76° W 13:53:31 10° N
Cosmos 1484 Rocket 2.4 13:46:02 10° N 13:49:22 57° WNW 13:52:39 10° SSW
Helios 1A Rocket 2.7 13:53:03 10° S 13:56:14 43° W 13:59:27 10° NNW
ISS -2.0 13:53:20 10° SSW 13:56:27 36° SE 13:59:35 10° ENE
[s.n.66875] 1.6 13:54:25 10° SW 13:56:56 68° SSE 13:59:28 10° ENE
[s.n.66873] 1.6 13:55:07 10° SW 13:57:38 69° SSE 14:00:11 10° ENE
[s.n.66876] 1.5 13:55:35 10° SW 13:58:06 70° SSE 14:00:39 10° ENE
Meteor 2-20 Rocket 4.4 13:52:58 10° NNW 13:58:33 57° W 14:04:07 10° S
[s.n.66874] 1.5 13:56:24 10° SW 13:58:55 72° SSE 14:01:27 10° ENE
[s.n.66872] 1.5 13:57:11 10° SW 13:59:42 74° SSE 14:02:16 10° ENE
[s.n.66871] 1.4 13:57:44 10° SW 14:00:15 75° SSE 14:02:49 10° ENE
[s.n.66870] 1.4 13:58:34 10° SW 14:01:06 77° SSE 14:03:39 10° ENE
[s.n.66869] 1.4 13:59:21 10° SW 14:01:53 78° SSE 14:04:27 10° ENE
[s.n.66868] 1.4 13:59:59 10° SW 14:02:31 80° SSE 14:05:04 10° ENE
[s.n.66867] 1.3 14:00:47 10° WSW 14:03:19 81° SE 14:05:53 10° ENE
Tiangong -0.2 14:01:27 11° W 14:03:45 20° SW 14:06:10 10° SSE
[s.n.66866] 1.3 14:01:31 10° WSW 14:04:04 83° SSE 14:06:38 10° ENE
[s.n.66865] 1.3 14:02:04 10° WSW 14:04:37 84° SSE 14:07:11 10° ENE
[s.n.66860] 1.3 14:02:44 10° WSW 14:05:17 86° SSE 14:07:52 10° ENE
[s.n.66864] 1.3 14:03:23 10° WSW 14:05:56 87° SE 14:08:29 10° ENE
Cosmos 405 Rocket 3.3 14:03:15 10° SW 14:06:01 26° WNW 14:08:48 10° NNW
[s.n.66863] 1.3 14:03:58 10° WSW 14:06:32 89° SE 14:09:06 10° ENE
BREEZE M DEB (TANK) 3.5 14:06:06 11° NW 14:07:19 14° NNW 14:09:03 10° NNE
[s.n.66861] 1.3 14:04:48 10° WSW 14:07:22 89° N 14:09:55 10° ENE
CZ-2D R/B 3.7 14:04:18 10° NNE 14:07:24 51° E 14:10:29 10° S
[s.n.66862] 1.3 14:05:27 10° WSW 14:08:01 88° NNW 14:10:35 10° ENE
OAO 3 Copernicus 4.3 14:03:26 10° W 14:08:26 75° N 14:13:26 10° E
[s.n.66859] 1.2 14:06:10 10° WSW 14:08:43 86° NNW 14:11:17 10° ENE
Cosmos 2344 4.1 14:00:36 10° SSW 14:09:20 70° ESE 14:16:32 10° NE
[s.n.66858] 1.2 14:06:50 10° WSW 14:09:24 85° NNW 14:11:59 10° ENE
COSMO-SKYMED 1 3.3 14:06:06 10° SSW 14:09:40 29° W 14:13:16 10° NW
[s.n.66857] 1.2 14:07:26 10° WSW 14:09:59 84° NW 14:12:34 10° ENE
[s.n.66856] 1.2 14:07:59 10° WSW 14:10:33 82° NNW 14:13:07 10° ENE
[s.n.66855] 1.2 14:08:41 10° WSW 14:11:14 81° NNW 14:13:49 10° ENE
Cosmos 1626 Rocket 4.2 14:07:30 10° SW 14:11:28 33° W 14:15:27 10° NNW
[s.n.66854] 1.2 14:09:16 10° WSW 14:11:49 80° NNW 14:14:24 10° ENE
[s.n.66853] 1.2 14:10:00 10° WSW 14:12:33 78° NNW 14:15:08 10° ENE
Cosmos 1707 4.1 14:09:50 10° NNE 14:12:41 31° E 14:15:30 10° SE
Cosmos 2360 Rocket 2.2 14:07:22 10° NNW 14:12:58 75° WSW 14:18:33 10° SSE
[s.n.66852] 1.2 14:10:46 10° WSW 14:13:19 77° NNW 14:15:54 10° ENE
OAO 3 Rocket 3.1 14:08:58 10° W 14:13:38 84° N 14:18:23 10° E
Cosmos-2242 3.9 14:10:15 10° NNW 14:13:47 26° W 14:17:16 10° SSW
[s.n.66851] 1.2 14:11:17 10° WSW 14:13:51 76° NNW 14:16:25 10° ENE
[s.n.66850] 1.2 14:11:50 10° WSW 14:14:24 74° NNW 14:16:59 10° ENE
[s.n.66849] 1.2 14:12:33 10° WSW 14:15:07 73° NNW 14:17:42 10° ENE
Okean 1 4.2 14:12:39 10° NW 14:15:34 24° W 14:18:28 10° SW
[s.n.66848] 1.2 14:13:06 10° WSW 14:15:39 72° NNW 14:18:14 10° ENE
Cosmos 2333 Rocket 2.7 14:14:03 10° NW 14:19:25 42° WSW 14:24:44 10° S
SJ-12 4.0 14:15:41 10° NNE 14:19:29 73° ESE 14:23:17 10° S
BREEZE-M DEB (TANK) 3.9 14:16:14 10° WNW 14:20:40 31° SW 14:23:25 10° SSE
